Tracking 26303 objects as of 1-Dec-2022
HD Live streaming from Space Station
objects crossing your sky now

COSMOS 1300

Track COSMOS 1300 now!
10-day predictions
COSMOS 1300 is classified as:


NORAD ID: 12785
Int'l Code: 1981-082A
Perigee: 509.2 km
Apogee: 512.9 km
Inclination: 82.5 °
Period: 94.7 minutes
Semi major axis: 6882 km
RCS: 5.912 m2 (large)
Launch date: August 24, 1981
Source: Commonwealth of Independent States (former USSR) (CIS)
Launch site: PLESETSK MISSILE AND SPACE COMPLEX (PKMTR)
aabbcc
Your satellite tracking list
Your tracking list is empty




NASA's NSSDC Master Catalog

Two Line Element Set (TLE):
1 12785U 81082A   22335.38578270  .00003095  00000-0  13967-3 0  9993
2 12785  82.5023 259.3150 0002674 109.0161  30.4795 15.20645990253961
Source of the keplerian elements: AFSPC